SCP
-0 -0 -0 -0 0 -0 -0 -0 -0 0 0 -0 0 -0 0 0 -0 -0 -0 -0 -0 0 -0 -0 -0 -0 -0 -0 -1 -0 -0 -0 -0 -0 0 0 -0 0 0 -0 -0 -0 0 0
-0 -0 -0 -0 -0 -0 -0 -0 -0 -0 0 0 0 0 -0 0 0 -0 -0 -0 -0 -0 -0 -0 -0 -0 -0 -0 -1 -0 -0 -0 -0 0 0 -0 0 0 0 0 0 0 -0 0
-0 -0 -0 -0 -0 -0 -0 -0 -0 0 0 0 0 0 0 -0 0 0 -0 -0 -0 -0 -0 -0 -0 -0 -0 -1 -1 -1 -0 -0 -0 0 0 0 -0 -0 0 0 -0 -0 0 0
-0 -0 -0 -0 0 0 -0 -0 -0 -0 -0 -0 0 0 -0 -0 0 -0 -0 -0 -0 -0 -0 -0 -0 0 -0 -1 -1 -2 -1 -1 -0 0 0 0 -0 0 0 0 -0 -0 -0 0
-0 0 -0 0 -0 -0 -0 0 -0 -0 -0 -0 -0 0 0 0 0 0 -0 -0 -0 -0 -0 -0 -0 -0 0 -1 -1 -2 -1 -0 -0 -0 0 -0 -0 0 0 -0 -1 -0 0 0
-0 -0 0 -0 -0 -0 -0 -0 -0 -0 -0 0 -0 -0 0 0 -0 0 -0 -0 -0 -0 -0 -0 -0 -0 0 -0 -0 -1 -2 -1 -0 -0 -0 0 0 0 -0 0 -0 -0 0 0
0 0 0 0 -0 -0 -0 -0 -0 -0 0 0 -0 -0 -0 -0 0 0 -0 -0 -0 -0 -0 -0 -0 -0 -0 -0 -0 -1 -3 -2 -1 -0 -0 -0 0 -0 0 0 -0 0 0 0
0 0 0 0 0 -0 -0 -0 0 -0 -0 0 -0 0 0 0 0 -0 -0 -0 0 -0 -0 -0 -0 -0 -0 -0 -1 -0 -3 -3 -2 -1 -0 -0 -0 -0 -0 -0 0 0 -0 0
0 -0 0 0 0 0 0 0 -0 -0 -0 -0 0 -0 -0 -0 0 0 -0 -0 -0 -0 0 -0 -0 -0 -0 -0 -0 -0 -3 -2 -2 -1 -0 -0 -0 -0 -0 -0 0 0 0 -0
0 0 -0 0 0 0 0 -0 -0 0 0 -0 0 0 0 0 0 0 0 -0 -0 -0 0 -0 0 -0 -0 -0 -0 -0 -1 -2 -2 -1 -1 -0 -1 -0 -0 -0 0 0 0 -0
0 0 0 0 0 -0 0 0 0 0 0 0 0 -0 0 0 0 0 0 -0 -0 -0 -0 0 -0 0 -0 -0 -0 -0 -0 -1 -1 -1 -1 -1 -1 -1 -0 0 0 1 1 0
0 0 0 0 0 0 0 -0 -0 0 0 0 0 0 0 0 0 0 0 0 -0 -0 -0 0 -0 -0 -0 -0 -0 -0 -0 -1 -1 -1 -1 -1 -1 -1 -1 -0 -0 0 1 1
0 0 0 0 0 0 0 0 0 0 0 0 0 0 0 0 0 0 0 0 0 0 -0 0 -0 -0 -0 -0 -0 -0 -0 -1 -2 -3 -2 -2 -1 -1 -1 -1 -0 1 1 2
0 0 -0 0 0 -0 0 0 0 0 0 0 -0 0 0 0 0 0 0 0 0 0 0 -0 0 0 -0 0 0 -0 -1 -1 -2 -3 -3 -2 -1 -1 -0 0 1 1 2 3
0 0 0 -0 -0 0 0 0 0 0 0 0 0 -0 0 0 0 0 0 0 0 0 0 0 0 0 1 0 1 1 -0 -2 -3 -3 -2 -1 -0 -0 1 1 1 2 2 3
0 0 0 0 0 0 0 -0 0 -0 0 0 0 0 0 0 0 0 1 0 0 0 0 0 0 0 0 0 0 1 1 -0 -2 -2 -1 -0 1 1 2 2 2 2 2 2
0 0 0 0 0 0 0 0 0 -0 0 0 0 0 0 0 0 1 0 0 0 0 0 0 0 0 0 0 0 0 0 1 0 0 -0 1 1 2 3 0 0 0 1 1
0 -0 0 0 0 0 0 0 0 0 0 0 0 0 0 0 1 0 0 0 0 0 1 1 1 1 0 0 0 -0 -0 0 1 1 1 1 2 1 1 1 1 1 2 1
0 0 0 0 0 0 0 0 0 0 0 0 0 0 0 0 1 1 0 0 0 0 0 1 1 1 1 0 2 1 0 1 1 1 3 3 1 1 1 1 1 1 1 0
0 0 0 0 0 0 -0 0 0 0 1 2 0 1 0 -0 1 3 1 0 0 0 0 0 1 2 1 2 2 2 2 1 1 2 2 2 2 1 1 1 1 1 0 1
0 0 0 0 0 0 -0 0 0 0 0 1 0 -0 -0 0 0 -0 -0 -0 0 0 0 0 1 1 1 2 5 6 4 3 2 2 2 2 2 2 2 2 1 1 1 2
0 0 0 0 0 0 0 -0 0 0 1 0 0 -0 0 0 0 0 0 0 1 1 1 1 0 1 1 1 2 3 4 3 3 2 2 2 2 1 2 3 2 2 2 1
0 0 0 0 0 0 0 0 0 0 -0 -0 -0 0 0 0 0 0 0 0 0 0 1 1 1 1 1 2 1 2 1 1 2 2 3 3 2 2 2 1 1 1 1 1
0 0 0 0 0 0 0 0 0 -0 -0 0 0 0 0 0 0 0 0 0 0 1 2 1 1 1 1 1 2 2 1 1 2 2 3 3 2 2 2 1 1 1 1 0
0 0 0 -0 0 0 0 0 0 0 0 0 0 0 0 0 0 0 0 1 0 0 1 1 1 1 1 1 1 1 1 1 2 2 2 2 2 1 2 1 1 0 1 0
0 0 0 0 0 0 -0 0 -0 0 0 0 0 0 0 0 0 0 0 0 1 0 2 2 2 1 1 1 1 1 1 1 0 0 1 1 2 1 1 0 0 0 0 0
Wind_Speed_500mb
34 24 28 37 2 49 46 27 20 17 9 9 15 43 13 40 37 44 44 50 48 43 41 44 42 44 42 45 40 38 34 36 27 26 25 23 22 24 13 11 8 17 22 11
28 33 30 32 34 14 24 26 8 10 12 3 23 23 25 23 36 40 39 48 51 47 46 49 49 46 54 51 45 41 39 40 39 33 23 20 16 24 14 9 18 12 12 12
34 35 32 21 27 16 28 29 19 14 20 11 12 6 20 20 36 35 45 41 50 51 52 51 48 53 56 58 54 45 44 42 37 29 24 27 24 22 14 16 13 11 11 16
30 38 33 26 20 19 28 19 21 17 21 20 19 11 22 27 28 34 38 45 48 56 49 56 55 50 54 61 50 46 41 45 37 39 32 28 29 19 20 30 17 4 1 7
31 32 28 27 37 23 31 24 19 27 28 36 27 16 18 17 25 33 37 44 48 51 52 56 53 52 50 57 55 52 42 43 40 37 39 35 33 26 13 9 9 10 11 7
32 44 17 22 24 30 30 31 29 32 30 4 41 37 14 12 19 36 39 42 46 47 51 47 56 57 53 52 50 58 51 45 41 44 40 42 33 27 22 22 15 8 13 12
35 38 33 25 25 31 29 30 23 27 25 3 45 32 19 23 20 8 30 35 44 43 45 48 51 57 57 55 59 53 59 48 44 43 44 45 43 34 34 17 22 15 17 19
28 27 44 34 31 29 27 31 21 34 29 16 46 10 15 20 31 14 11 32 30 47 47 52 53 51 63 58 65 57 62 58 48 44 44 40 45 44 34 38 24 22 18 15
31 30 8 2 19 23 29 24 34 33 34 25 4 17 24 32 28 19 29 22 25 39 40 43 55 52 53 55 60 60 60 62 50 50 45 45 44 45 43 34 26 27 11 15
25 30 29 9 19 17 25 30 26 18 20 19 11 11 22 27 23 16 21 24 27 30 37 43 39 49 49 50 49 54 53 56 49 47 50 49 49 47 46 39 43 35 28 31
19 24 34 21 16 25 26 27 29 33 24 17 18 8 27 22 12 20 21 22 24 26 35 39 42 37 46 48 52 55 61 58 54 44 50 53 54 52 50 54 51 47 39 46
16 25 25 36 25 29 26 32 31 23 29 24 19 11 25 23 16 22 26 28 25 18 25 31 39 35 42 45 51 55 60 61 63 58 52 56 55 55 54 55 55 50 45 53
20 15 20 31 28 32 16 21 26 27 29 32 24 13 23 20 14 23 23 19 15 12 16 21 36 42 38 43 46 52 56 64 65 66 60 60 63 59 56 55 52 52 48 58
20 29 35 23 26 24 33 34 26 36 21 27 32 32 27 22 19 23 24 15 6 8 11 11 10 36 45 45 43 50 54 57 66 66 64 66 69 68 63 56 49 55 52 52
19 31 35 36 37 35 23 28 25 26 34 33 8 32 27 25 21 26 27 24 14 7 13 23 22 20 23 46 54 41 53 54 64 72 72 68 66 67 60 53 53 52 45 39
18 30 32 38 33 35 36 34 32 33 31 30 37 30 17 37 24 23 28 31 24 15 12 19 24 35 33 30 45 56 58 61 61 67 73 71 61 59 53 46 36 36 30 27
16 26 34 30 17 29 26 25 33 54 33 30 32 38 48 24 27 22 27 30 27 21 19 14 18 13 34 39 46 48 59 65 73 71 67 60 54 48 42 49 42 48 45 30
35 34 27 26 8 21 21 44 40 47 29 34 14 30 26 30 42 21 20 24 22 19 20 19 15 15 21 29 47 43 44 52 65 68 58 51 44 54 55 53 55 56 57 26
15 15 14 9 17 26 33 9 16 28 52 24 34 16 29 20 45 26 22 23 22 21 20 21 18 15 18 21 24 52 45 42 45 46 45 44 58 58 58 59 58 57 50 38
33 17 1 18 7 25 13 36 19 32 11 51 26 30 45 63 24 17 27 22 20 19 21 22 24 22 16 10 2 22 30 30 33 33 42 50 53 54 53 53 50 49 48 50
12 11 6 12 7 19 27 51 16 6 10 26 59 32 39 9 24 31 21 15 10 11 17 16 22 23 18 10 4 7 12 19 30 36 39 43 42 44 39 41 48 44 38 26
3 10 11 7 10 17 50 15 5 23 28 26 24 78 23 8 12 17 14 8 10 10 10 15 13 15 14 7 4 10 24 23 30 26 31 33 35 36 43 42 44 26 18 22
2 4 7 12 8 12 26 66 3 36 48 29 28 15 14 11 10 8 7 3 8 9 4 9 11 16 7 7 4 18 17 18 19 25 26 31 34 36 40 37 25 17 27 29
7 9 8 14 7 14 25 56 7 32 26 17 10 7 8 14 15 15 14 14 11 13 6 5 4 4 11 4 3 4 14 14 18 20 29 35 29 30 31 34 27 32 33 40
14 7 20 35 27 15 21 49 19 17 11 8 9 11 15 18 22 22 24 24 13 8 2 2 2 2 9 6 5 3 4 13 22 28 24 25 12 16 20 24 31 33 33 36
40 14 23 9 22 10 23 20 30 25 22 18 18 18 16 17 21 21 20 23 26 9 3 7 6 5 10 7 6 3 6 8 14 20 16 18 20 25 22 28 33 31 34 38
Wind_Direction_500mb
244 240 247 267 115 195 216 283 304 62 104 326 226 44 210 166 192 174 176 179 186 197 188 171 181 179 172 174 174 182 183 188 196 207 198 191 214 218 231 250 269 217 266 278
252 242 250 284 300 344 302 290 316 304 21 343 14 140 206 189 194 187 183 177 182 196 193 180 185 179 173 176 176 180 189 206 204 195 200 207 200 228 231 232 233 286 295 285
245 259 248 227 268 271 253 264 20 343 310 320 344 83 257 232 191 208 186 185 183 189 199 187 188 189 176 177 181 186 194 211 208 192 202 213 217 229 198 211 309 264 187 270
250 260 269 280 276 290 279 359 350 303 291 284 171 176 236 217 182 195 210 186 188 186 195 186 194 196 188 176 182 191 202 209 215 190 201 217 225 219 229 232 241 171 360 246
262 243 262 270 272 263 262 322 330 291 283 272 175 245 154 140 191 193 202 202 197 187 185 192 193 195 204 187 187 196 210 216 213 209 199 218 228 231 264 188 208 240 279 16
257 277 283 283 285 266 275 300 284 271 257 61 309 302 153 169 156 186 187 198 196 190 183 192 187 195 201 193 188 193 205 220 215 220 215 205 227 226 223 232 247 299 277 321
251 246 251 234 259 262 237 249 273 273 233 257 244 257 103 83 63 40 160 170 191 186 189 174 190 191 193 201 193 198 204 214 226 220 225 215 215 225 229 219 236 235 247 263
245 238 208 216 221 266 262 233 256 296 310 193 226 136 104 95 101 87 108 151 189 184 193 188 185 193 194 198 194 195 207 209 220 230 222 223 218 224 229 228 220 251 235 258
277 277 268 327 192 229 260 226 245 278 302 299 6 24 124 105 104 121 114 130 165 186 196 189 181 186 192 194 197 196 206 208 219 229 222 221 220 223 230 228 231 220 226 234
246 271 278 155 234 238 273 275 269 227 259 278 256 350 113 98 114 120 138 148 160 186 192 185 198 187 191 193 198 199 206 210 219 229 224 221 226 227 226 227 226 226 218 228
267 268 269 267 181 249 227 239 257 279 280 285 295 84 111 113 119 121 108 135 140 169 188 193 184 206 191 198 195 199 203 208 218 220 227 225 227 228 227 226 227 229 210 230
230 266 261 251 245 237 235 253 216 240 252 275 306 162 114 116 118 114 94 73 98 133 171 188 180 198 198 199 200 199 203 208 213 223 228 230 229 228 230 230 231 234 219 234
312 244 249 264 270 233 212 259 273 262 247 269 269 82 87 106 95 76 93 99 116 102 154 188 188 185 202 199 204 205 207 208 214 222 225 231 230 230 234 238 229 229 221 228
305 279 292 278 252 302 217 204 231 265 268 250 255 155 155 117 111 110 107 104 95 156 176 239 253 194 196 206 209 208 210 215 213 217 224 231 233 233 235 232 228 226 229 227
254 264 274 282 288 313 312 279 219 223 259 264 39 114 116 117 111 90 94 87 79 166 221 218 218 235 203 204 210 209 208 210 215 219 226 232 231 232 229 221 226 217 220 223
275 269 273 288 328 347 314 308 270 282 229 268 277 132 95 125 100 102 90 85 73 42 342 323 229 213 218 218 218 221 218 209 217 224 226 228 227 223 222 216 224 217 218 224
270 289 299 294 4 328 292 338 343 324 270 242 246 113 150 125 97 75 92 88 71 48 26 341 299 269 215 226 232 233 228 223 219 221 227 219 220 210 205 206 204 204 204 196
286 272 269 290 328 254 289 332 334 343 299 249 171 105 94 104 107 102 88 88 75 51 35 15 336 293 273 239 222 229 229 232 227 226 224 214 207 199 197 200 203 217 233 239
21 14 332 318 292 329 302 320 7 357 318 312 64 74 116 143 127 109 80 65 63 49 32 21 1 325 292 289 332 213 205 222 223 222 213 202 203 196 199 209 222 233 215 293
313 54 180 311 315 222 233 316 20 9 348 344 349 66 9 330 130 59 59 48 50 41 35 28 19 17 24 357 123 184 190 206 210 205 200 205 201 208 217 225 228 226 242 291
321 302 15 306 318 301 110 228 126 38 282 324 346 114 127 218 51 148 112 92 46 39 35 42 33 31 25 19 320 173 193 198 204 205 207 208 206 218 214 213 208 209 278 256
352 302 278 275 252 253 356 268 232 288 203 271 328 305 62 24 32 62 73 54 30 29 26 16 28 33 29 56 35 215 221 225 221 213 204 199 203 205 200 203 205 265 227 191
147 180 330 274 285 251 338 295 199 51 206 171 200 284 13 340 344 345 338 308 316 321 342 332 360 343 338 85 173 224 237 253 229 205 192 189 194 198 205 215 239 195 186 188
18 263 228 235 257 314 295 271 199 338 150 81 88 357 3 353 338 321 308 318 320 332 8 360 349 346 336 346 295 212 220 207 180 171 182 181 192 209 222 238 229 200 193 189
190 150 251 259 114 75 320 336 311 38 22 4 326 340 355 349 344 339 323 315 290 294 305 228 272 346 297 317 317 318 208 180 172 172 199 194 229 237 203 188 180 195 192 206
167 190 254 265 125 162 183 227 309 304 310 310 307 318 312 318 316 314 313 306 306 256 16 217 206 230 259 279 274 291 191 188 170 180 194 195 214 240 218 209 196 198 188 189
Wind_Speed_850mb
34 24 28 37 2 49 46 27 20 17 9 9 15 43 13 40 37 44 44 50 48 43 41 44 42 44 42 45 40 38 34 36 27 26 25 23 22 24 13 11 8 17 22 11
28 33 30 32 34 14 24 26 8 10 12 3 23 23 25 23 36 40 39 48 51 47 46 49 49 46 54 51 45 41 39 40 39 33 23 20 16 24 14 9 18 12 12 12
34 35 32 21 27 16 28 29 19 14 20 11 12 6 20 20 36 35 45 41 50 51 52 51 48 53 56 58 54 45 44 42 37 29 24 27 24 22 14 16 13 11 11 16
30 38 33 26 20 19 28 19 21 17 21 20 19 11 22 27 28 34 38 45 48 56 49 56 55 50 54 61 50 46 41 45 37 39 32 28 29 19 20 30 17 4 1 7
31 32 28 27 37 23 31 24 19 27 28 36 27 16 18 17 25 33 37 44 48 51 52 56 53 52 50 57 55 52 42 43 40 37 39 35 33 26 13 9 9 10 11 7
32 44 17 22 24 30 30 31 29 32 30 4 41 37 14 12 19 36 39 42 46 47 51 47 56 57 53 52 50 58 51 45 41 44 40 42 33 27 22 22 15 8 13 12
35 38 33 25 25 31 29 30 23 27 25 3 45 32 19 23 20 8 30 35 44 43 45 48 51 57 57 55 59 53 59 48 44 43 44 45 43 34 34 17 22 15 17 19
28 27 44 34 31 29 27 31 21 34 29 16 46 10 15 20 31 14 11 32 30 47 47 52 53 51 63 58 65 57 62 58 48 44 44 40 45 44 34 38 24 22 18 15
31 30 8 2 19 23 29 24 34 33 34 25 4 17 24 32 28 19 29 22 25 39 40 43 55 52 53 55 60 60 60 62 50 50 45 45 44 45 43 34 26 27 11 15
25 30 29 9 19 17 25 30 26 18 20 19 11 11 22 27 23 16 21 24 27 30 37 43 39 49 49 50 49 54 53 56 49 47 50 49 49 47 46 39 43 35 28 31
19 24 34 21 16 25 26 27 29 33 24 17 18 8 27 22 12 20 21 22 24 26 35 39 42 37 46 48 52 55 61 58 54 44 50 53 54 52 50 54 51 47 39 46
16 25 25 36 25 29 26 32 31 23 29 24 19 11 25 23 16 22 26 28 25 18 25 31 39 35 42 45 51 55 60 61 63 58 52 56 55 55 54 55 55 50 45 53
20 15 20 31 28 32 16 21 26 27 29 32 24 13 23 20 14 23 23 19 15 12 16 21 36 42 38 43 46 52 56 64 65 66 60 60 63 59 56 55 52 52 48 58
20 29 35 23 26 24 33 34 26 36 21 27 32 32 27 22 19 23 24 15 6 8 11 11 10 36 45 45 43 50 54 57 66 66 64 66 69 68 63 56 49 55 52 52
19 31 35 36 37 35 23 28 25 26 34 33 8 32 27 25 21 26 27 24 14 7 13 23 22 20 23 46 54 41 53 54 64 72 72 68 66 67 60 53 53 52 45 39
18 30 32 38 33 35 36 34 32 33 31 30 37 30 17 37 24 23 28 31 24 15 12 19 24 35 33 30 45 56 58 61 61 67 73 71 61 59 53 46 36 36 30 27
16 26 34 30 17 29 26 25 33 54 33 30 32 38 48 24 27 22 27 30 27 21 19 14 18 13 34 39 46 48 59 65 73 71 67 60 54 48 42 49 42 48 45 30
35 34 27 26 8 21 21 44 40 47 29 34 14 30 26 30 42 21 20 24 22 19 20 19 15 15 21 29 47 43 44 52 65 68 58 51 44 54 55 53 55 56 57 26
15 15 14 9 17 26 33 9 16 28 52 24 34 16 29 20 45 26 22 23 22 21 20 21 18 15 18 21 24 52 45 42 45 46 45 44 58 58 58 59 58 57 50 38
33 17 1 18 7 25 13 36 19 32 11 51 26 30 45 63 24 17 27 22 20 19 21 22 24 22 16 10 2 22 30 30 33 33 42 50 53 54 53 53 50 49 48 50
12 11 6 12 7 19 27 51 16 6 10 26 59 32 39 9 24 31 21 15 10 11 17 16 22 23 18 10 4 7 12 19 30 36 39 43 42 44 39 41 48 44 38 26
3 10 11 7 10 17 50 15 5 23 28 26 24 78 23 8 12 17 14 8 10 10 10 15 13 15 14 7 4 10 24 23 30 26 31 33 35 36 43 42 44 26 18 22
2 4 7 12 8 12 26 66 3 36 48 29 28 15 14 11 10 8 7 3 8 9 4 9 11 16 7 7 4 18 17 18 19 25 26 31 34 36 40 37 25 17 27 29
7 9 8 14 7 14 25 56 7 32 26 17 10 7 8 14 15 15 14 14 11 13 6 5 4 4 11 4 3 4 14 14 18 20 29 35 29 30 31 34 27 32 33 40
14 7 20 35 27 15 21 49 19 17 11 8 9 11 15 18 22 22 24 24 13 8 2 2 2 2 9 6 5 3 4 13 22 28 24 25 12 16 20 24 31 33 33 36
40 14 23 9 22 10 23 20 30 25 22 18 18 18 16 17 21 21 20 23 26 9 3 7 6 5 10 7 6 3 6 8 14 20 16 18 20 25 22 28 33 31 34 38
Wind_Direction_850mb
244 240 247 267 115 195 216 283 304 62 104 326 226 44 210 166 192 174 176 179 186 197 188 171 181 179 172 174 174 182 183 188 196 207 198 191 214 218 231 250 269 217 266 278
252 242 250 284 300 344 302 290 316 304 21 343 14 140 206 189 194 187 183 177 182 196 193 180 185 179 173 176 176 180 189 206 204 195 200 207 200 228 231 232 233 286 295 285
245 259 248 227 268 271 253 264 20 343 310 320 344 83 257 232 191 208 186 185 183 189 199 187 188 189 176 177 181 186 194 211 208 192 202 213 217 229 198 211 309 264 187 270
250 260 269 280 276 290 279 359 350 303 291 284 171 176 236 217 182 195 210 186 188 186 195 186 194 196 188 176 182 191 202 209 215 190 201 217 225 219 229 232 241 171 360 246
262 243 262 270 272 263 262 322 330 291 283 272 175 245 154 140 191 193 202 202 197 187 185 192 193 195 204 187 187 196 210 216 213 209 199 218 228 231 264 188 208 240 279 16
257 277 283 283 285 266 275 300 284 271 257 61 309 302 153 169 156 186 187 198 196 190 183 192 187 195 201 193 188 193 205 220 215 220 215 205 227 226 223 232 247 299 277 321
251 246 251 234 259 262 237 249 273 273 233 257 244 257 103 83 63 40 160 170 191 186 189 174 190 191 193 201 193 198 204 214 226 220 225 215 215 225 229 219 236 235 247 263
245 238 208 216 221 266 262 233 256 296 310 193 226 136 104 95 101 87 108 151 189 184 193 188 185 193 194 198 194 195 207 209 220 230 222 223 218 224 229 228 220 251 235 258
277 277 268 327 192 229 260 226 245 278 302 299 6 24 124 105 104 121 114 130 165 186 196 189 181 186 192 194 197 196 206 208 219 229 222 221 220 223 230 228 231 220 226 234
246 271 278 155 234 238 273 275 269 227 259 278 256 350 113 98 114 120 138 148 160 186 192 185 198 187 191 193 198 199 206 210 219 229 224 221 226 227 226 227 226 226 218 228
267 268 269 267 181 249 227 239 257 279 280 285 295 84 111 113 119 121 108 135 140 169 188 193 184 206 191 198 195 199 203 208 218 220 227 225 227 228 227 226 227 229 210 230
230 266 261 251 245 237 235 253 216 240 252 275 306 162 114 116 118 114 94 73 98 133 171 188 180 198 198 199 200 199 203 208 213 223 228 230 229 228 230 230 231 234 219 234
312 244 249 264 270 233 212 259 273 262 247 269 269 82 87 106 95 76 93 99 116 102 154 188 188 185 202 199 204 205 207 208 214 222 225 231 230 230 234 238 229 229 221 228
305 279 292 278 252 302 217 204 231 265 268 250 255 155 155 117 111 110 107 104 95 156 176 239 253 194 196 206 209 208 210 215 213 217 224 231 233 233 235 232 228 226 229 227
254 264 274 282 288 313 312 279 219 223 259 264 39 114 116 117 111 90 94 87 79 166 221 218 218 235 203 204 210 209 208 210 215 219 226 232 231 232 229 221 226 217 220 223
275 269 273 288 328 347 314 308 270 282 229 268 277 132 95 125 100 102 90 85 73 42 342 323 229 213 218 218 218 221 218 209 217 224 226 228 227 223 222 216 224 217 218 224
270 289 299 294 4 328 292 338 343 324 270 242 246 113 150 125 97 75 92 88 71 48 26 341 299 269 215 226 232 233 228 223 219 221 227 219 220 210 205 206 204 204 204 196
286 272 269 290 328 254 289 332 334 343 299 249 171 105 94 104 107 102 88 88 75 51 35 15 336 293 273 239 222 229 229 232 227 226 224 214 207 199 197 200 203 217 233 239
21 14 332 318 292 329 302 320 7 357 318 312 64 74 116 143 127 109 80 65 63 49 32 21 1 325 292 289 332 213 205 222 223 222 213 202 203 196 199 209 222 233 215 293
313 54 180 311 315 222 233 316 20 9 348 344 349 66 9 330 130 59 59 48 50 41 35 28 19 17 24 357 123 184 190 206 210 205 200 205 201 208 217 225 228 226 242 291
321 302 15 306 318 301 110 228 126 38 282 324 346 114 127 218 51 148 112 92 46 39 35 42 33 31 25 19 320 173 193 198 204 205 207 208 206 218 214 213 208 209 278 256
352 302 278 275 252 253 356 268 232 288 203 271 328 305 62 24 32 62 73 54 30 29 26 16 28 33 29 56 35 215 221 225 221 213 204 199 203 205 200 203 205 265 227 191
147 180 330 274 285 251 338 295 199 51 206 171 200 284 13 340 344 345 338 308 316 321 342 332 360 343 338 85 173 224 237 253 229 205 192 189 194 198 205 215 239 195 186 188
18 263 228 235 257 314 295 271 199 338 150 81 88 357 3 353 338 321 308 318 320 332 8 360 349 346 336 346 295 212 220 207 180 171 182 181 192 209 222 238 229 200 193 189
190 150 251 259 114 75 320 336 311 38 22 4 326 340 355 349 344 339 323 315 290 294 305 228 272 346 297 317 317 318 208 180 172 172 199 194 229 237 203 188 180 195 192 206
167 190 254 265 125 162 183 227 309 304 310 310 307 318 312 318 316 314 313 306 306 256 16 217 206 230 259 279 274 291 191 188 170 180 194 195 214 240 218 209 196 198 188 189